Regional Weather Roundup
Issued by NWS

Home | Current Version | Previous Version | Text Only | Print | Product List | Glossary Off
Versions: 1 2 3 4 5 6 7 8 9 10 11 12 13 14 15 16 17 18 19 20 21 22 23 24 25 26 27 28 29 30 31 32 33 34 35 36 37 38 39 40 41 42 43 44 45 46 47 48 49 50

000
ASUS44 KMEG 271800
RWRTN
TENNESSEE HOURLY STATE WEATHER ROUNDUP
NATIONAL WEATHER SERVICE MEMPHIS TN
100 PM CDT WED JUL 27 2016

TNZ002-004-019-021-049-052-054-088>092-271900-
WEST TENNESSEE

CITY           SKY/WX    TMP DP  RH WIND       PRES   REMARKS
MEMPHIS INTL   CLOUDY    92  74  55 SE10      29.95F HX 101
NWS MEMPHIS      N/A     90 N/A N/A MISG        N/A
JACKSON        PTSUNNY   90  76  63 E7        29.98F HX 101
DYERSBURG      SUNNY     90  75  62 MISG      29.96F HX 100
PARIS          MOSUNNY   88  75  66 S6        30.00F HX  97
$$

TNZ008-025-027-028-033-062-065-066-271900-
NORTH MIDDLE TENNESSEE

CITY           SKY/WX    TMP DP  RH WIND       PRES   REMARKS
NASHVILLE      PTSUNNY   92  72  51 VRB6      30.00F HX  99
CLARKSVILLE    MOSUNNY   88  75  65 SW6       29.99F HX  97
COOKEVILLE     MOSUNNY   91  75  59 CALM      30.03S HX 102
CROSSVILLE     PTSUNNY   85  69  58 SW3       30.08F
$$

TNZ061-075-076-078-094-096-097-271900-
SOUTH MIDDLE TENNESSEE

CITY           SKY/WX    TMP DP  RH WIND       PRES   REMARKS
WINCHESTER     PTSUNNY   90  72  55 S8        30.04F HX  96
COLUMBIA       CLOUDY    90  77  66 S9        30.01F HX 102
SHELBYVILLE    MOSUNNY   90  77  66 SW10      30.03F HX 102
$$

TNZ017-018-042-046-047-271900-
NORTHEAST TENNESSEE

CITY           SKY/WX    TMP DP  RH WIND       PRES   REMARKS
TRI CITIES     NOT AVBL
$$

TNZ012-013-036-069-073-074-271900-
CENTRAL EAST TENNESSEE

CITY           SKY/WX    TMP DP  RH WIND       PRES   REMARKS
KNOXVILLE      MOSUNNY   93  69  45 NW9       30.01F HX  98
OAK RIDGE      SUNNY     95  69  42 VRB7      30.03F HX 100
GATLINBURG       N/A     97  68  38 W8        30.01F HX 101
$$

TNZ083-085-099-271900-
SOUTHEAST TENNESSEE

CITY           SKY/WX    TMP DP  RH WIND       PRES   REMARKS
CHATTANOOGA    PTSUNNY   91  70  49 S7        30.02F HX  96
$$

SKY/WX REPORTED AS FAIR MEANS FEW OR NO CLOUDS BELOW
12 THOUSAND FEET.





USA.gov is the U.S. government's official web portal to all federal, state and local government web resources and services.